Lid_Strength_Index
-0 1 4 5 11 12 15 15 14 14 14 14 13 14 15 16 12 13 14 13 13 12 11 11 6 1 -1 -1 -1 -1 -1 -2 -2 -2 -2 -2 -2 -2 -2 -2 -2 -2 -2 -2 -2 -2 -2 -2 -2
1 1 5 7 13 17 18 14 14 15 15 13 14 15 17 16 16 15 15 13 12 12 11 11 4 -0 -1 -1 -1 -2 -2 -2 -2 -2 -2 -2 -2 -2 -2 -2 -2 -2 -2 -2 -2 -2 -2 -2 -2
2 2 7 10 15 16 17 16 14 14 14 14 14 15 17 16 15 15 14 13 12 12 11 11 4 -1 -1 -2 -2 -2 -2 -2 -2 -2 -2 -2 -2 -2 -2 -2 -2 -2 -2 -2 -2 -2 -2 -2 -2
4 6 9 14 18 17 14 15 15 14 12 13 14 15 16 15 14 14 13 12 13 13 12 10 5 1 -1 -1 -2 -1 -1 -1 -1 -1 -1 -2 -2 -2 -2 -2 -2 -2 -2 -1 -1 -1 -2 -2 -2
5 8 13 14 17 15 14 14 14 14 14 14 14 16 18 15 14 13 13 13 13 13 12 11 7 4 1 -0 -0 -0 -0 -0 1 1 1 0 -1 -0 -1 -1 -1 -1 -1 -0 -1 -1 -2 -1 -0
7 8 14 15 14 14 16 15 14 14 14 14 14 15 15 14 14 13 13 13 12 13 12 11 10 7 5 3 1 1 1 1 2 2 2 1 1 1 1 1 1 0 0 0 -1 -1 -0 0 1
9 12 13 13 14 15 15 14 15 16 16 15 16 15 15 15 14 13 12 13 12 13 13 12 11 10 9 6 5 4 3 3 3 3 3 3 3 3 2 2 2 2 2 1 0 0 1 1 2
9 11 12 13 14 14 14 14 14 15 15 15 16 17 17 16 13 12 12 13 13 13 13 12 12 11 11 10 8 7 6 6 6 6 6 6 6 5 5 4 3 3 2 2 1 1 2 3 4
9 13 16 15 14 17 14 15 14 14 16 15 15 17 15 14 13 13 13 14 13 13 13 13 12 12 12 11 11 10 9 9 9 8 9 10 11 11 10 6 5 4 4 3 2 2 2 4 5
15 17 16 14 15 16 15 15 15 16 16 18 17 16 16 15 14 15 15 15 14 14 14 13 13 13 12 12 12 12 12 13 12 12 12 12 12 12 11 9 7 7 5 5 5 5 4 8 10
15 18 15 16 14 14 17 17 16 17 18 18 18 19 15 16 17 16 16 15 15 15 14 14 13 13 13 13 13 13 13 14 14 13 12 12 11 11 12 13 12 12 10 12 12 12 12 12 13
16 15 14 15 13 14 17 17 19 20 18 18 17 15 15 16 18 18 17 15 15 15 15 15 14 14 14 13 14 14 13 13 14 13 13 13 13 13 14 14 14 13 11 13 13 14 14 14 13
16 15 14 14 15 16 16 21 20 19 17 16 16 16 16 17 17 17 16 15 14 15 15 15 14 14 14 14 14 14 14 14 14 14 13 13 13 14 14 14 15 14 13 13 14 14 15 15 15
15 15 15 15 15 15 18 21 18 17 16 16 16 16 16 16 17 16 15 16 15 14 14 14 14 14 14 14 14 14 15 15 14 14 14 14 14 14 15 15 15 15 15 14 15 15 15 16 15
14 16 15 15 14 15 15 18 18 16 16 16 16 15 15 17 16 16 15 14 14 14 14 14 14 14 14 15 15 14 15 15 16 15 15 15 14 14 14 15 15 15 15 16 15 15 15 16 15
15 16 20 16 14 14 15 21 14 15 17 17 16 15 15 15 15 15 15 15 14 14 14 13 13 14 14 15 14 15 15 16 15 15 15 14 13 13 14 14 14 14 14 14 14 15 16 17 17
19 21 21 19 15 16 17 20 16 14 15 16 16 16 16 15 15 15 14 14 14 14 14 14 13 14 15 14 14 15 15 15 15 15 15 14 13 13 14 14 14 14 14 15 15 16 16 17 17
21 22 20 21 19 19 19 19 17 16 16 16 15 15 15 14 14 13 13 13 13 13 13 13 14 14 15 16 15 15 15 15 15 15 14 14 13 14 14 14 14 14 14 16 16 16 16 16 16
19 20 21 20 18 19 20 19 17 18 17 17 17 16 15 14 13 13 12 12 13 13 13 13 13 14 14 15 16 16 16 15 15 15 14 14 13 13 13 14 14 14 15 15 15 14 15 15 15
19 21 21 19 18 19 19 19 17 18 17 17 17 16 16 15 14 14 13 14 13 13 13 13 13 14 14 15 15 15 15 15 15 14 13 12 12 13 13 14 14 14 14 14 15 15 16 16 16
20 21 21 21 19 18 20 18 18 18 17 16 16 15 15 15 15 15 14 14 15 15 14 14 14 14 14 14 14 14 14 14 14 14 13 12 12 12 12 13 13 14 14 15 15 15 16 16 16
21 19 20 20 20 22 19 21 19 19 18 17 16 16 16 15 15 15 15 15 15 14 15 14 14 14 14 14 14 15 15 15 14 14 13 13 12 12 12 13 13 14 14 15 15 14 15 16 17
20 19 20 20 21 21 21 22 18 18 19 18 16 16 15 15 15 15 15 14 14 14 15 14 14 14 14 15 14 15 15 14 14 15 14 14 13 13 13 13 14 14 14 14 15 15 15 15 16
18 20 19 20 21 24 23 22 20 18 18 17 17 17 16 15 14 14 15 15 15 15 14 15 15 14 14 15 15 15 15 14 14 14 14 14 13 13 13 13 13 14 14 14 14 15 15 15 16
20 21 24 22 24 23 23 24 19 18 17 17 17 17 16 16 14 14 15 16 16 16 15 14 15 15 14 14 15 15 15 15 14 14 14 14 14 13 13 13 13 13 13 13 14 15 15 15 15
21 21 23 27 26 24 22 25 19 17 17 17 16 17 17 16 15 14 14 15 16 16 16 15 14 14 14 14 14 14 14 14 14 14 14 14 14 13 13 13 13 13 13 13 13 14 15 15 15
21 23 21 28 35 29 23 21 17 17 17 16 16 17 16 16 15 15 15 14 14 15 16 15 15 14 14 13 13 13 13 13 13 13 13 14 13 13 13 14 14 13 13 13 13 14 14 14 15
22 21 23 26 28 30 24 23 20 18 18 17 17 17 16 15 15 14 14 14 14 13 14 15 15 15 14 14 14 13 13 13 13 13 13 13 13 13 14 14 14 14 14 14 14 14 14 14 14
24 23 23 23 24 28 29 23 18 18 18 18 17 16 14 14 14 14 14 14 14 13 14 14 15 15 14 14 14 14 14 13 13 13 13 13 13 13 14 14 14 13 13 14 14 14 14 15 14
22 22 22 25 26 25 26 23 15 16 17 16 14 14 13 13 13 14 15 15 14 14 14 14 14 14 14 14 14 13 13 13 13 13 12 12 13 12 13 13 13 13 13 12 13 14 13 14 15